This is the latest recevied weather packets stored in our database for station/object ON7SD-5. If no packets are shown the sender has not sent any weather packets the latest 10 day(s).
| Time | Temp. | Humidity | Pressure | Rain* | Wind** | Luminosity | Snow |
|---|---|---|---|---|---|---|---|
| 1777728133 | 25° C | 55% | 1015.2 hPa | 0 mm | - | 214 W/m² | - |
| 1777727833 | 25° C | 55% | 1015.2 hPa | 0 mm | - | 803 W/m² | - |
| 1777727533 | 24.44° C | 54% | 1015.2 hPa | 0 mm | - | 835 W/m² | - |
| 1777727233 | 24.44° C | 54% | 1015.3 hPa | 0 mm | - | 798 W/m² | - |
| 1777726933 | 24.44° C | 55% | 1015.4 hPa | 0 mm | - | 747 W/m² | - |
| 1777726633 | 23.89° C | 56% | 1015.4 hPa | 0 mm | - | 833 W/m² | - |
| 1777725433 | 25° C | 53% | 1015.6 hPa | 0 mm | - | 199 W/m² | - |
| 1777724833 | 24.44° C | 54% | 1015.7 hPa | 0 mm | - | 654 W/m² | - |
| 1777724533 | 24.44° C | 55% | 1015.8 hPa | 0 mm | - | 626 W/m² | - |
| 1777724233 | 23.89° C | 56% | 1015.9 hPa | 0 mm | - | 635 W/m² | - |
| 1777723933 | 24.44° C | 55% | 1015.9 hPa | 0 mm | - | 715 W/m² | - |
| 1777723633 | 24.44° C | 54% | 1015.9 hPa | 0 mm | - | 631 W/m² | - |
| 1777723333 | 25° C | 53% | 1016 hPa | 0 mm | - | 777 W/m² | - |
| 1777723033 | 24.44° C | 55% | 1016.2 hPa | 0 mm | - | 807 W/m² | - |
| 1777722733 | 24.44° C | 56% | 1016.2 hPa | 0 mm | - | 742 W/m² | - |
| 1777722433 | 23.89° C | 58% | 1016.3 hPa | 0 mm | - | 793 W/m² | - |
| 1777722133 | 23.89° C | 57% | 1016.3 hPa | 0 mm | - | 824 W/m² | - |
| 1777721833 | 23.33° C | 59% | 1016.3 hPa | 0 mm | - | 817 W/m² | - |
| 1777721533 | 23.33° C | 58% | 1016.4 hPa | 0 mm | - | 823 W/m² | - |
| 1777721233 | 23.89° C | 59% | 1016.5 hPa | 0 mm | - | 809 W/m² | - |
| 1777720933 | 23.89° C | 60% | 1016.6 hPa | 0 mm | - | 803 W/m² | - |
| 1777720633 | 23.33° C | 60% | 1016.6 hPa | 0 mm | - | 784 W/m² | - |
| 1777720333 | 23.33° C | 60% | 1016.7 hPa | 0 mm | - | 824 W/m² | - |
| 1777720033 | 23.33° C | 60% | 1016.7 hPa | 0 mm | - | 824 W/m² | - |
| 1777719733 | 23.33° C | 61% | 1016.7 hPa | 0 mm | - | 868 W/m² | - |
* Rain latest hour (hover to see other rain measurements)
** Current wind speed in m/s (hover to see current wind gust speed)